Back to catalog

KUIPER-00139

AliveCommunicationsLEO
NORAD 65765·PAYLOAD·🇺🇸 United States

Launched Sep 25, 2025 from Cape Canaveral Space Force Station

Loading…

Next Passes (next 24 hours)

TLE

FreshSource: CelesTrak SupGP

Epoch: Sep 14, 2026, 16:04 UTC

1 65765C 25217D   26257.66987269 -.00002070  00000+0 -27095-3 0  2574
2 65765  51.8970 264.9419 0000712  45.6107 208.3649 14.79936393    16

Track KUIPER-00139 in real time with AllMySat

Download on the App Store